timestamp,wind_dir_avg,wind_spd_avg,wind_spd_max_dir,wind_spd_gust,battery_voltage,lat,long
2021-02-23 00:04:01+00:00,277.0,8.37,281.0,9.26,12.57,47.59359,-54.27349
2021-02-23 00:14:01+00:00,271.0,7.22,278.0,8.69,12.49,47.59359,-54.27349
2021-02-23 00:24:01+00:00,284.0,6.12,282.0,7.98,12.49,47.59359,-54.27349
2021-02-23 00:34:01+00:00,279.0,5.53,272.0,6.35,12.49,47.59359,-54.27349
2021-02-23 00:44:01+00:00,273.0,4.68,275.0,5.35,12.49,47.59359,-54.27349
2021-02-23 00:54:01+00:00,260.0,6.2,262.0,7.12,12.49,47.59359,-54.27349
2021-02-23 01:04:01+00:00,261.0,5.72,257.0,6.63,12.49,47.59359,-54.27349
2021-02-23 01:14:01+00:00,278.0,5.54,281.0,6.19,12.41,47.59359,-54.27349
2021-02-23 01:24:01+00:00,279.0,6.3,283.0,7.79,12.41,47.59359,-54.27349
2021-02-23 01:34:01+00:00,282.0,5.36,272.0,6.93,12.41,47.59359,-54.27349
2021-02-23 01:44:01+00:00,281.0,7.99,284.0,9.68,12.41,47.59359,-54.27349
2021-02-23 01:54:01+00:00,284.0,7.25,292.0,8.98,12.41,47.59359,-54.27349
2021-02-23 02:04:01+00:00,282.0,7.96,278.0,9.14,12.41,47.59359,-54.27349
2021-02-23 02:14:01+00:00,286.0,5.46,283.0,6.52,12.41,47.59359,-54.27349
2021-02-23 02:24:01+00:00,307.0,3.17,310.0,4.06,12.41,47.59359,-54.27349
2021-02-23 02:34:01+00:00,275.0,2.31,261.0,3.4,12.41,47.59359,-54.27349
2021-02-23 02:44:01+00:00,264.0,5.39,276.0,6.79,12.41,47.59359,-54.27349
2021-02-23 02:54:01+00:00,281.0,4.51,291.0,6.26,12.41,47.59359,-54.27349
2021-02-23 03:04:01+00:00,274.0,5.81,271.0,6.7,12.41,47.59359,-54.27349
2021-02-23 03:14:01+00:00,268.0,6.04,271.0,7.63,12.41,47.59359,-54.27349
2021-02-23 03:24:01+00:00,283.0,3.64,279.0,4.39,12.41,47.59359,-54.27349
2021-02-23 03:34:01+00:00,247.0,3.06,259.0,3.95,12.41,47.59359,-54.27349
2021-02-23 03:44:01+00:00,288.0,2.69,293.0,3.41,12.41,47.59359,-54.27349
2021-02-23 03:54:01+00:00,281.0,4.16,288.0,4.84,12.41,47.59359,-54.27349
2021-02-23 04:04:01+00:00,290.0,1.6,278.0,1.99,12.41,47.59359,-54.27349
2021-02-23 04:14:01+00:00,291.0,1.87,295.0,2.41,12.41,47.59359,-54.27349
2021-02-23 04:24:01+00:00,291.0,1.54,291.0,2.1,12.41,47.59359,-54.27349
2021-02-23 04:34:01+00:00,286.0,2.25,292.0,3.02,12.41,47.59359,-54.27349
2021-02-23 04:44:01+00:00,296.0,1.45,299.0,2.48,12.41,47.59359,-54.27349
2021-02-23 04:54:01+00:00,269.0,2.19,270.0,2.78,12.41,47.59359,-54.27349
2021-02-23 05:04:01+00:00,294.0,1.66,285.0,2.11,12.41,47.59359,-54.27349
2021-02-23 05:14:01+00:00,316.0,2.64,310.0,3.37,12.33,47.59359,-54.27349
2021-02-23 05:24:01+00:00,308.0,1.52,308.0,2.0,12.33,47.59359,-54.27349
2021-02-23 05:34:01+00:00,295.0,0.82,313.0,1.35,12.33,47.59359,-54.27349
2021-02-23 05:44:01+00:00,307.0,1.24,298.0,1.82,12.33,47.59359,-54.27349
2021-02-23 05:54:01+00:00,270.0,0.6,253.0,0.96,12.33,47.59359,-54.27349
2021-02-23 06:04:01+00:00,257.0,1.02,258.0,1.59,12.33,47.59359,-54.27349
2021-02-23 06:14:01+00:00,313.0,0.91,313.0,1.23,12.33,47.59359,-54.27349
2021-02-23 06:24:01+00:00,353.0,0.6,4.0,1.04,12.33,47.59359,-54.27349
2021-02-23 06:34:01+00:00,349.0,0.37,358.0,0.59,12.33,47.59359,-54.27349
2021-02-23 06:44:01+00:00,318.0,0.73,340.0,1.25,12.33,47.59359,-54.27349
2021-02-23 06:54:01+00:00,163.0,0.17,146.0,0.41,12.33,47.59359,-54.27349
2021-02-23 07:04:01+00:00,264.0,1.62,252.0,2.39,12.33,47.59359,-54.27349
2021-02-23 07:14:01+00:00,305.0,1.41,314.0,1.86,12.25,47.59359,-54.27349
2021-02-23 07:24:01+00:00,267.0,3.04,264.0,4.51,12.25,47.59359,-54.27349
2021-02-23 07:34:01+00:00,265.0,4.11,270.0,4.69,12.25,47.59359,-54.27349
2021-02-23 07:44:01+00:00,252.0,5.24,251.0,6.2,12.25,47.59359,-54.27349
2021-02-23 07:54:01+00:00,259.0,5.13,269.0,5.53,12.25,47.59359,-54.27349
2021-02-23 08:04:01+00:00,273.0,4.99,272.0,5.82,12.25,47.59359,-54.27349
2021-02-23 08:14:01+00:00,257.0,5.79,250.0,7.63,12.17,47.59359,-54.27349
2021-02-23 08:24:01+00:00,240.0,7.39,245.0,9.22,12.17,47.59359,-54.27349
2021-02-23 08:34:01+00:00,252.0,6.05,250.0,6.78,12.17,47.59359,-54.27349
2021-02-23 08:44:01+00:00,246.0,6.35,246.0,7.22,12.17,47.59359,-54.27349
2021-02-23 08:54:01+00:00,242.0,6.64,242.0,7.73,12.17,47.59359,-54.27349
2021-02-23 09:04:01+00:00,231.0,6.48,237.0,7.37,12.17,47.59359,-54.27349
2021-02-23 09:14:01+00:00,231.0,6.99,235.0,8.48,12.17,47.59359,-54.27349
2021-02-23 09:24:01+00:00,232.0,6.43,229.0,7.25,12.17,47.59359,-54.27349
2021-02-23 09:34:01+00:00,230.0,6.67,228.0,8.07,12.17,47.59359,-54.27349
2021-02-23 09:44:01+00:00,229.0,5.72,234.0,6.5,12.17,47.59359,-54.27349
2021-02-23 09:54:01+00:00,227.0,6.73,232.0,7.28,12.17,47.59359,-54.27349
2021-02-23 10:04:01+00:00,224.0,6.59,230.0,7.27,12.17,47.59359,-54.27349
2021-02-23 10:14:01+00:00,224.0,6.37,233.0,7.51,12.17,47.59359,-54.27349
2021-02-23 10:24:01+00:00,236.0,6.58,245.0,7.41,12.17,47.59359,-54.27349
2021-02-23 10:34:01+00:00,229.0,6.12,231.0,7.9,12.17,47.59359,-54.27349
2021-02-23 10:44:01+00:00,230.0,6.42,230.0,7.61,12.17,47.59359,-54.27349
2021-02-23 10:54:01+00:00,229.0,6.73,238.0,8.15,12.17,47.59359,-54.27349
2021-02-23 11:04:01+00:00,234.0,6.73,235.0,7.42,12.17,47.59359,-54.27349
2021-02-23 11:14:01+00:00,229.0,7.11,229.0,8.51,12.73,47.59359,-54.27349
2021-02-23 11:24:01+00:00,237.0,6.5,236.0,7.07,12.73,47.59359,-54.27349
2021-02-23 11:34:01+00:00,230.0,5.69,233.0,6.46,12.73,47.59359,-54.27349
2021-02-23 11:44:01+00:00,227.0,6.32,229.0,7.11,12.73,47.59359,-54.27349
2021-02-23 11:54:01+00:00,229.0,5.67,230.0,6.71,12.73,47.59359,-54.27349
2021-02-23 12:04:01+00:00,227.0,5.59,224.0,6.48,12.73,47.59359,-54.27349
2021-02-23 12:14:01+00:00,229.0,5.65,227.0,6.59,13.76,47.59359,-54.27349
2021-02-23 12:24:01+00:00,226.0,5.8,216.0,7.5,13.76,47.59359,-54.27349
2021-02-23 12:34:01+00:00,226.0,6.61,227.0,7.94,13.76,47.59359,-54.27349
2021-02-23 12:44:01+00:00,216.0,8.48,216.0,9.47,13.76,47.59359,-54.27349
2021-02-23 12:54:01+00:00,220.0,7.94,224.0,9.12,13.76,47.59359,-54.27349
2021-02-23 13:04:01+00:00,214.0,9.73,213.0,10.82,13.76,47.59359,-54.27349
2021-02-23 13:14:01+00:00,212.0,10.16,210.0,11.32,13.68,47.59359,-54.27349
2021-02-23 13:24:01+00:00,210.0,8.77,210.0,9.72,13.68,47.59359,-54.27349
2021-02-23 13:34:01+00:00,202.0,8.95,204.0,9.79,13.68,47.59359,-54.27349
2021-02-23 13:44:01+00:00,209.0,10.87,210.0,12.35,13.68,47.59359,-54.27349
2021-02-23 13:54:01+00:00,206.0,8.66,205.0,10.0,13.68,47.59359,-54.27349
2021-02-23 14:04:01+00:00,199.0,8.13,201.0,9.33,13.68,47.59359,-54.27349
2021-02-23 15:14:01+00:00,200.0,9.03,197.0,10.05,13.76,47.59359,-54.27349
2021-02-23 15:24:01+00:00,186.0,9.45,189.0,10.76,13.76,47.59359,-54.27349
2021-02-23 15:34:01+00:00,193.0,9.94,190.0,11.18,13.76,47.59359,-54.27349
2021-02-23 15:44:01+00:00,198.0,9.63,199.0,10.9,13.76,47.59359,-54.27349
2021-02-23 15:54:01+00:00,199.0,8.85,205.0,9.57,13.76,47.59359,-54.27349
2021-02-23 16:04:01+00:00,200.0,8.63,200.0,10.19,13.76,47.59359,-54.27349
2021-02-23 16:14:01+00:00,197.0,6.57,199.0,7.3,13.84,47.59359,-54.27349
2021-02-23 16:24:01+00:00,192.0,9.54,194.0,11.85,13.84,47.59359,-54.27349
2021-02-23 16:34:01+00:00,189.0,9.48,193.0,10.3,13.84,47.59359,-54.27349
2021-02-23 16:44:01+00:00,179.0,8.07,178.0,9.19,13.84,47.59359,-54.27349
2021-02-23 16:54:01+00:00,172.0,5.48,183.0,6.31,13.84,47.59359,-54.27349
2021-02-23 17:04:01+00:00,173.0,6.09,173.0,6.74,13.84,47.59359,-54.27349
2021-02-23 17:14:01+00:00,163.0,6.97,152.0,8.2,13.53,47.59359,-54.27349
2021-02-23 17:24:01+00:00,153.0,6.16,154.0,6.75,13.53,47.59359,-54.27349
2021-02-23 17:34:01+00:00,141.0,5.95,142.0,6.78,13.53,47.59359,-54.27349
2021-02-23 17:44:01+00:00,136.0,5.59,137.0,6.98,13.53,47.59359,-54.27349
2021-02-23 17:54:01+00:00,133.0,4.58,134.0,5.69,13.53,47.59359,-54.27349
2021-02-23 18:04:01+00:00,127.0,5.29,135.0,6.03,13.53,47.59359,-54.27349
2021-02-23 18:14:01+00:00,121.0,7.1,129.0,8.64,12.97,47.59359,-54.27349
2021-02-23 18:24:01+00:00,135.0,6.99,139.0,8.1,12.97,47.59359,-54.27349
2021-02-23 18:34:01+00:00,133.0,7.33,138.0,9.39,12.97,47.59359,-54.27349
2021-02-23 18:44:01+00:00,116.0,6.64,123.0,8.74,12.97,47.59359,-54.27349
2021-02-23 18:54:01+00:00,117.0,6.58,117.0,10.8,12.97,47.59359,-54.27349
2021-02-23 19:04:01+00:00,119.0,8.95,116.0,12.05,12.97,47.59359,-54.27349
2021-02-23 19:14:01+00:00,112.0,10.15,120.0,12.07,12.65,47.59359,-54.27349
2021-02-23 19:24:01+00:00,113.0,11.51,121.0,13.39,12.65,47.59359,-54.27349
2021-02-23 19:34:01+00:00,119.0,8.29,118.0,11.51,12.65,47.59359,-54.27349
2021-02-23 19:44:01+00:00,114.0,7.84,123.0,10.9,12.65,47.59359,-54.27349
2021-02-23 19:54:01+00:00,108.0,7.19,121.0,11.7,12.65,47.59359,-54.27349
2021-02-23 20:04:01+00:00,108.0,6.28,119.0,10.27,12.65,47.59359,-54.27349
2021-02-23 20:14:01+00:00,129.0,9.31,131.0,11.77,12.49,47.59359,-54.27349
2021-02-23 20:24:01+00:00,112.0,6.24,131.0,10.22,12.49,47.59359,-54.27349
2021-02-23 20:34:01+00:00,129.0,9.0,125.0,11.95,12.49,47.59359,-54.27349
2021-02-23 20:44:01+00:00,139.0,10.33,149.0,13.72,12.49,47.59359,-54.27349
2021-02-23 20:54:01+00:00,140.0,13.14,142.0,15.71,12.49,47.59359,-54.27349
2021-02-23 21:04:01+00:00,143.0,12.11,144.0,15.98,12.49,47.59359,-54.27349
2021-02-23 21:14:01+00:00,140.0,12.3,143.0,16.48,12.49,47.59359,-54.27349
2021-02-23 21:24:01+00:00,142.0,14.01,141.0,17.04,12.49,47.59359,-54.27349
2021-02-23 21:34:01+00:00,151.0,14.73,151.0,18.49,12.49,47.59359,-54.27349
2021-02-23 21:44:01+00:00,154.0,14.95,162.0,17.41,12.49,47.59359,-54.27349
2021-02-23 21:54:01+00:00,161.0,12.71,169.0,16.58,12.49,47.59359,-54.27349
2021-02-23 22:04:01+00:00,159.0,14.52,158.0,17.11,12.49,47.59359,-54.27349
2021-02-23 22:14:01+00:00,159.0,17.57,161.0,20.57,12.41,47.59359,-54.27349
2021-02-23 22:24:01+00:00,161.0,17.51,165.0,19.94,12.41,47.59359,-54.27349
2021-02-23 22:34:01+00:00,164.0,13.62,162.0,16.24,12.41,47.59359,-54.27349
2021-02-23 22:44:01+00:00,172.0,13.46,170.0,15.67,12.41,47.59359,-54.27349
2021-02-23 22:54:01+00:00,174.0,14.43,175.0,17.19,12.41,47.59359,-54.27349
2021-02-23 23:04:01+00:00,175.0,14.0,168.0,17.28,12.41,47.59359,-54.27349
2021-02-23 23:14:01+00:00,176.0,13.22,177.0,15.26,12.25,47.59359,-54.27349
2021-02-23 23:24:01+00:00,180.0,13.45,180.0,14.73,12.25,47.59359,-54.27349
2021-02-23 23:34:01+00:00,182.0,13.78,180.0,16.78,12.25,47.59359,-54.27349
2021-02-23 23:44:01+00:00,178.0,12.0,182.0,15.44,12.25,47.59359,-54.27349
2021-02-23 23:54:01+00:00,183.0,12.51,186.0,13.7,12.25,47.59359,-54.27349
